Kodiak, AK

6:42 PM AKDT on September 29, 2016 (GMT -0800)
Kodiak

Weather History for PADQ - July, 2014

Change the Weather History Date:

Tuesday, July 22, 2014

  Actual Average Record
Temperature  
Mean Temperature 56 °F 55 °F  
Max Temperature 61 °F 61 °F 82 °F (1967)
Min Temperature 50 °F 50 °F 42 °F (1938)
Degree Days  
Heating Degree Days 9 10  
Month to date heating degree days 168 242  
Since 1 June heating degree days 590 703  
Since 1 July heating degree days 168 242  
Cooling Degree Days 0    
Month to date cooling degree days 0  
Year to date cooling degree days 4  
Since 1 June cooling degree days 0  
Growing Degree Days 6 (Base 50)    
Moisture  
Dew Point 53 °F    
Average Humidity 0    
Maximum Humidity 0    
Minimum Humidity 0    
Precipitation  
Precipitation T in 0.15 in 1.18 in (1984)
Month to date precipitation 2.11 3.58  
Year to date precipitation 41.86 40.88  
Snow  
Snow 0.00 in 0.00 in 0.00 in (2016)
Month to date snowfall 0.0 0.0  
Since 1 June snowfall 0.0 0.0  
Since 1 July snowfall 0.0 0.0  
Snow Depth 0.00 in    
Sea Level Pressure  
Sea Level Pressure 29.94 in    
Wind  
Wind Speed 4 mph (ENE)    
Max Wind Speed 8 mph    
Max Gust Speed 9 mph    
Visibility 10 miles    
Events      
T = Trace of Precipitation, MM = Missing Value Source: NWS Daily Summary

Daily Weather History Graph

Daily Weather History Graph

Search for Another Location

Airport or City:

Trip Planner

Search our weather history database for the weather conditions in past years. The results will help you decide how hot, cold, wet, or windy it might be!

Date:

Astronomy

Jul. 22, 2014 Rise Set
Actual Time 5:45 AM AKDT 10:46 PM AKDT
Civil Twilight 4:46 AM AKDT 11:44 PM AKDT
Nautical Twilight 2:21 AM AKDT 1:49 AM AKDT
Astronomical Twilight Sun does not set Sun does not set
Moon 2:36 AM AKDT (7/22) 7:26 PM AKDT (7/22)
Length of Visible Light 18h 57m
Length of Day
17h 00m
Waning Crescent, 15% of the Moon is Illuminated
Jul 22
Waning Crescent
Jul 26
New
Aug 3
First Quarter
Aug 10
Full
Aug 17
Last Quarter

Hourly Weather History & Observations

Time (AKDT) Temp. Dew Point Humidity Pressure Visibility Wind Dir Wind Speed Gust Speed Precip Events Conditions
12:53 AM 55.0 °F 50.0 °F 83% 30.05 in 10.0 mi WNW 4.6 mph - N/A   Partly Cloudy
1:53 AM 55.0 °F 51.1 °F 86% 30.04 in 10.0 mi NW 5.8 mph - N/A   Clear
2:53 AM 53.1 °F 50.0 °F 89% 30.03 in 10.0 mi WNW 4.6 mph - N/A   Clear
3:53 AM 55.0 °F 51.1 °F 86% 30.02 in 10.0 mi NW 10.4 mph - N/A   Scattered Clouds
4:53 AM 53.1 °F 51.1 °F 93% 30.01 in 10.0 mi West 3.5 mph - N/A   Scattered Clouds
5:53 AM 53.1 °F 51.1 °F 93% 30.00 in 10.0 mi WNW 6.9 mph - N/A   Mostly Cloudy
6:53 AM 51.1 °F 48.9 °F 92% 30.00 in 10.0 mi WNW 4.6 mph - N/A   Mostly Cloudy
7:53 AM 55.0 °F 51.1 °F 86% 29.99 in 10.0 mi WNW 5.8 mph - N/A   Mostly Cloudy
8:53 AM 55.9 °F 52.0 °F 87% 29.99 in 10.0 mi NW 5.8 mph - N/A   Mostly Cloudy
9:53 AM 55.9 °F 52.0 °F 87% 29.98 in 10.0 mi East 3.5 mph - N/A   Mostly Cloudy
10:53 AM 57.0 °F 53.1 °F 87% 29.97 in 10.0 mi East 5.8 mph - N/A   Mostly Cloudy
11:53 AM 55.4 °F 53.6 °F 94% 29.96 in 10.0 mi NE 5.8 mph - N/A   Mostly Cloudy
12:53 PM 57.9 °F 53.1 °F 84% 29.95 in 10.0 mi Variable 4.6 mph - N/A   Mostly Cloudy
1:53 PM 57.0 °F 52.0 °F 83% 29.94 in 10.0 mi ESE 8.1 mph - N/A   Mostly Cloudy
2:53 PM 57.9 °F 52.0 °F 81% 29.93 in 10.0 mi East 5.8 mph - N/A   Mostly Cloudy
3:53 PM 57.9 °F 52.0 °F 81% 29.93 in 10.0 mi SE 3.5 mph - N/A   Mostly Cloudy
4:34 PM 59.0 °F 51.8 °F 77% - 10.0 mi East 3.5 mph - N/A   Overcast
4:53 PM 59.0 °F 52.0 °F 78% 29.91 in 10.0 mi ESE 3.5 mph - N/A   Overcast
5:40 PM 60.8 °F 51.8 °F 72% 29.90 in 10.0 mi East 5.8 mph - N/A   Overcast
5:53 PM 60.1 °F 51.1 °F 72% 29.90 in 10.0 mi ESE 4.6 mph - N/A   Overcast
6:53 PM 60.1 °F 51.1 °F 72% 29.90 in 10.0 mi Calm Calm - N/A   Overcast
7:53 PM 59.0 °F 52.0 °F 78% 29.90 in 10.0 mi Calm Calm - N/A   Overcast
8:36 PM 57.2 °F 55.4 °F 94% 29.89 in 10.0 mi South 5.8 mph - 0.00 in   Overcast
8:53 PM 57.0 °F 55.0 °F 93% 29.89 in 10.0 mi South 5.8 mph - 0.00 in   Overcast
9:35 PM 57.2 °F 55.4 °F 94% 29.89 in 10.0 mi ESE 3.5 mph - N/A   Overcast
9:45 PM 57.2 °F 55.4 °F 94% 29.89 in 10.0 mi Calm Calm - N/A   Overcast
9:53 PM 57.0 °F 55.0 °F 93% 29.89 in 10.0 mi Calm Calm - N/A   Overcast
10:10 PM 55.4 °F 55.4 °F 100% 29.89 in 10.0 mi NNE 4.6 mph - N/A   Overcast
10:21 PM 55.4 °F 55.4 °F 100% 29.89 in 10.0 mi Calm Calm - N/A   Overcast
10:53 PM 55.9 °F 55.0 °F 97% 29.89 in 10.0 mi Calm Calm - N/A   Overcast
11:00 PM 55.4 °F 55.4 °F 100% 29.89 in 10.0 mi Calm Calm - N/A   Overcast
11:53 PM 55.9 °F 55.0 °F 97% 29.89 in 10.0 mi NNE 3.5 mph - N/A   Overcast